Simultaneous Nadir Overpasses (SNOs) Predictions

Prediction of SNOs between GOES-16 and NOAA-19 Satellite Orbit:

Table of predicted SNOs for the next 14.0 days since TLE Epoch: 7/26/2019
Index Date Time (GOES-16) GOES-16 Lat,Lon NOAA-19 Lat,Lon Distance(km) Time Diff (sec)
1 07/28/2019 22:16:53 0.03, -75.22 -0.60, -78.06 323.72 80
2 07/29/2019 22:05:15 0.04, -75.23 0.03, -75.21 1.93 80
3 07/30/2019 21:50:57 0.04, -75.24 0.72, -72.38 327.16 80
4 08/02/2019 10:14:45 -0.05, -75.27 0.45, -77.38 240.28 80
5 08/03/2019 10:00:28 -0.05, -75.29 -0.25, -74.54 85.81 80
6 08/04/2019 09:48:49 -0.05, -75.31 -0.89, -71.70 412.01 80
7 08/05/2019 22:24:14 0.05, -75.34 -0.94, -79.53 479.13 80
8 08/06/2019 22:12:36 0.05, -75.36 -0.24, -76.70 152.49 80
9 08/07/2019 21:58:18 0.05, -75.38 0.39, -73.85 174.31 80




NCC Satellite Simultaneous Nadir Overpasses (SNOs) Prediction Service
